Terminal Aerodrome Forecast
Issued by NWS Portland, OR

Home | Current Version | Previous Version | Text Only | Print | Product List | Glossary On
Versions: 1 2 3 4 5 6 7 8 9 10 11 12 13 14 15 16 17 18 19 20 21 22 23 24 25 26 27 28 29 30 31 32 33 34 35 36 37 38 39 40 41 42 43 44 45 46 47 48 49 50
000
FTUS46 KPQR 181747
TAFPDX
TAF
KPDX 181747Z 1818/1918 22006KT P6SM VCSH SCT015 OVC040
      TEMPO 1818/1820 -RA BKN015
     FM182000 17006KT P6SM -RA BKN025 OVC045
     FM190200 18006KT P6SM SCT025 OVC040
     FM190500 17012KT P6SM -RA OVC035
     FM191000 17017G25KT P6SM RA SCT025 OVC035=

USA.gov is the U.S. government's official web portal to all federal, state and local government web resources and services.